Year,Month,Day,Hour,Minute,Value (Times are PST for temperature in C)
2008,08,09,00,00,14.20
2008,08,09,00,01,14.20
2008,08,09,00,02,14.20
2008,08,09,00,03,14.20
2008,08,09,00,04,14.20
2008,08,09,00,05,14.20
2008,08,09,00,06,14.20
2008,08,09,00,07,14.20
2008,08,09,00,08,14.20
2008,08,09,00,09,14.20
2008,08,09,00,10,14.20
2008,08,09,00,11,14.20
2008,08,09,00,12,14.20
2008,08,09,00,13,14.20
2008,08,09,00,14,14.20
2008,08,09,00,15,14.20
2008,08,09,00,16,14.20
2008,08,09,00,17,14.20
2008,08,09,00,18,14.20
2008,08,09,00,19,14.20
2008,08,09,00,20,14.20
2008,08,09,00,21,14.20
2008,08,09,00,22,14.20
2008,08,09,00,23,14.20
2008,08,09,00,24,14.20
2008,08,09,00,25,14.20
2008,08,09,00,26,14.20
2008,08,09,00,27,14.20
2008,08,09,00,28,14.20
2008,08,09,00,29,14.20
2008,08,09,00,30,14.20
2008,08,09,00,31,14.10
2008,08,09,00,32,14.10
2008,08,09,00,33,14.10
2008,08,09,00,34,14.10
2008,08,09,00,35,14.10
2008,08,09,00,36,14.10
2008,08,09,00,37,14.00
2008,08,09,00,38,14.00
2008,08,09,00,39,14.00
2008,08,09,00,40,14.00
2008,08,09,00,41,14.00
2008,08,09,00,42,14.00
2008,08,09,00,43,14.00
2008,08,09,00,44,14.00
2008,08,09,00,45,14.00
2008,08,09,00,46,14.00
2008,08,09,00,47,14.00
2008,08,09,00,48,14.00
2008,08,09,00,49,14.00
2008,08,09,00,50,14.00
2008,08,09,00,51,14.10
2008,08,09,00,52,14.10
2008,08,09,00,53,14.10
2008,08,09,00,54,14.10
2008,08,09,00,55,14.10
2008,08,09,00,56,14.10
2008,08,09,00,57,14.10
2008,08,09,00,58,14.10
2008,08,09,00,59,14.10
2008,08,09,01,00,14.10
2008,08,09,01,01,14.10
2008,08,09,01,02,14.10
2008,08,09,01,03,14.10
2008,08,09,01,04,14.10
2008,08,09,01,05,14.10
2008,08,09,01,06,14.10
2008,08,09,01,07,14.10
2008,08,09,01,08,14.10
2008,08,09,01,09,14.20
2008,08,09,01,10,14.20
2008,08,09,01,11,14.20
2008,08,09,01,12,14.20
2008,08,09,01,13,14.20
2008,08,09,01,14,14.20
2008,08,09,01,15,14.20
2008,08,09,01,16,14.20
2008,08,09,01,17,14.20
2008,08,09,01,18,14.20
2008,08,09,01,19,14.20
2008,08,09,01,20,14.10
2008,08,09,01,21,14.10
2008,08,09,01,22,14.10
2008,08,09,01,23,14.10
2008,08,09,01,24,14.10
2008,08,09,01,25,14.10
2008,08,09,01,26,14.10
2008,08,09,01,27,14.10
2008,08,09,01,28,14.10
2008,08,09,01,29,14.10
2008,08,09,01,30,14.10
2008,08,09,01,31,14.10
2008,08,09,01,32,14.10
2008,08,09,01,33,14.10
2008,08,09,01,34,14.10
2008,08,09,01,35,14.20
2008,08,09,01,36,14.20
2008,08,09,01,37,14.20
2008,08,09,01,38,14.20
2008,08,09,01,39,14.20
2008,08,09,01,40,14.20
2008,08,09,01,41,14.20
2008,08,09,01,42,14.20
2008,08,09,01,43,14.20
2008,08,09,01,44,14.20
2008,08,09,01,45,14.20
2008,08,09,01,46,14.20
2008,08,09,01,47,14.20
2008,08,09,01,48,14.20
2008,08,09,01,49,14.20
2008,08,09,01,50,14.20
2008,08,09,01,51,14.20
2008,08,09,01,52,14.20
2008,08,09,01,53,14.20
2008,08,09,01,54,14.20
2008,08,09,01,55,14.20
2008,08,09,01,56,14.20
2008,08,09,01,57,14.20
2008,08,09,01,58,14.20
2008,08,09,01,59,14.20
2008,08,09,02,00,14.20
2008,08,09,02,01,14.20
2008,08,09,02,02,14.20
2008,08,09,02,03,14.20
2008,08,09,02,04,14.20
2008,08,09,02,05,14.20
2008,08,09,02,06,14.20
2008,08,09,02,07,14.20
2008,08,09,02,08,14.20
2008,08,09,02,09,14.20
2008,08,09,02,10,14.20
2008,08,09,02,11,14.20
2008,08,09,02,12,14.20
2008,08,09,02,13,14.20
2008,08,09,02,14,14.20
2008,08,09,02,15,14.20
2008,08,09,02,16,14.20
2008,08,09,02,17,14.20
2008,08,09,02,18,14.20
2008,08,09,02,19,14.20
2008,08,09,02,20,14.20
2008,08,09,02,21,14.20
2008,08,09,02,22,14.20
2008,08,09,02,23,14.20
2008,08,09,02,24,14.20
2008,08,09,02,25,14.20
2008,08,09,02,26,14.20
2008,08,09,02,27,14.20
2008,08,09,02,28,14.20
2008,08,09,02,29,14.20
2008,08,09,02,30,14.10
2008,08,09,02,31,14.10
2008,08,09,02,32,14.10
2008,08,09,02,33,14.10
2008,08,09,02,34,14.10
2008,08,09,02,35,14.10
2008,08,09,02,36,14.10
2008,08,09,02,37,14.10
2008,08,09,02,38,14.10
2008,08,09,02,39,14.10
2008,08,09,02,40,14.10
2008,08,09,02,41,14.10
2008,08,09,02,42,14.10
2008,08,09,02,43,14.10
2008,08,09,02,44,14.10
2008,08,09,02,45,14.10
2008,08,09,02,46,14.10
2008,08,09,02,47,14.10
2008,08,09,02,48,14.10
2008,08,09,02,49,14.10
2008,08,09,02,50,14.10
2008,08,09,02,51,14.10
2008,08,09,02,52,14.10
2008,08,09,02,53,14.10
2008,08,09,02,54,14.20
2008,08,09,02,55,14.20
2008,08,09,02,56,14.20
2008,08,09,02,57,14.20
2008,08,09,02,58,14.20
2008,08,09,02,59,14.20
2008,08,09,03,00,14.20
2008,08,09,03,01,14.20
2008,08,09,03,02,14.20
2008,08,09,03,03,14.20
2008,08,09,03,04,14.30
2008,08,09,03,05,14.30
2008,08,09,03,06,14.30
2008,08,09,03,07,14.30
2008,08,09,03,08,14.30
2008,08,09,03,09,14.30
2008,08,09,03,10,14.30
2008,08,09,03,11,14.30
2008,08,09,03,12,14.30
2008,08,09,03,13,14.30
2008,08,09,03,14,14.30
2008,08,09,03,15,14.30
2008,08,09,03,16,14.30
2008,08,09,03,17,14.30
2008,08,09,03,18,14.30
2008,08,09,03,19,14.30
2008,08,09,03,20,14.30
2008,08,09,03,21,14.30
2008,08,09,03,22,14.30
2008,08,09,03,23,14.20
2008,08,09,03,24,14.30
2008,08,09,03,25,14.30
2008,08,09,03,26,14.20
2008,08,09,03,27,14.20
2008,08,09,03,28,14.20
2008,08,09,03,29,14.20
2008,08,09,03,30,14.20
2008,08,09,03,31,14.20
2008,08,09,03,32,14.20
2008,08,09,03,33,14.20
2008,08,09,03,34,14.20
2008,08,09,03,35,14.20
2008,08,09,03,36,14.20
2008,08,09,03,37,14.20
2008,08,09,03,38,14.20
2008,08,09,03,39,14.20
2008,08,09,03,40,14.10
2008,08,09,03,41,14.10
2008,08,09,03,42,14.10
2008,08,09,03,43,14.10
2008,08,09,03,44,14.10
2008,08,09,03,45,14.10
2008,08,09,03,46,14.10
2008,08,09,03,47,14.10
2008,08,09,03,48,14.10
2008,08,09,03,49,14.10
2008,08,09,03,50,14.10
2008,08,09,03,51,14.10
2008,08,09,03,52,14.10
2008,08,09,03,53,14.10
2008,08,09,03,54,14.10
2008,08,09,03,55,14.10
2008,08,09,03,56,14.10
2008,08,09,03,57,14.10
2008,08,09,03,58,14.10
2008,08,09,03,59,14.10
2008,08,09,04,00,14.10
2008,08,09,04,01,14.10
2008,08,09,04,02,14.10
2008,08,09,04,03,14.10
2008,08,09,04,05,14.10
2008,08,09,04,06,14.10
2008,08,09,04,07,14.10
2008,08,09,04,08,14.10
2008,08,09,04,09,14.10
2008,08,09,04,10,14.10
2008,08,09,04,11,14.10
2008,08,09,04,12,14.10
2008,08,09,04,13,14.10
2008,08,09,04,14,14.10
2008,08,09,04,15,14.10
2008,08,09,04,16,14.10
2008,08,09,04,17,14.10
2008,08,09,04,18,14.10
2008,08,09,04,19,14.10
2008,08,09,04,20,14.10
2008,08,09,04,21,14.20
2008,08,09,04,22,14.20
2008,08,09,04,23,14.20
2008,08,09,04,24,14.20
2008,08,09,04,25,14.20
2008,08,09,04,26,14.20
2008,08,09,04,27,14.20
2008,08,09,04,28,14.20
2008,08,09,04,29,14.20
2008,08,09,04,30,14.20
2008,08,09,04,31,14.20
2008,08,09,04,32,14.20
2008,08,09,04,33,14.20
2008,08,09,04,34,14.20
2008,08,09,04,35,14.20
2008,08,09,04,36,14.20
2008,08,09,04,37,14.20
2008,08,09,04,38,14.20
2008,08,09,04,39,14.20
2008,08,09,04,40,14.20
2008,08,09,04,41,14.20
2008,08,09,04,42,14.20
2008,08,09,04,43,14.20
2008,08,09,04,44,14.20
2008,08,09,04,45,14.10
2008,08,09,04,46,14.10
2008,08,09,04,47,14.10
2008,08,09,04,48,14.10
2008,08,09,04,49,14.10
2008,08,09,04,50,14.10
2008,08,09,04,51,14.10
2008,08,09,04,52,14.10
2008,08,09,04,53,14.10
2008,08,09,04,54,14.10
2008,08,09,04,55,14.10
2008,08,09,04,56,14.10
2008,08,09,04,57,14.10
2008,08,09,04,58,14.10
2008,08,09,04,59,14.10
2008,08,09,05,00,14.10
2008,08,09,05,01,14.10
2008,08,09,05,02,14.10
2008,08,09,05,03,14.10
2008,08,09,05,04,14.10
2008,08,09,05,05,14.10
2008,08,09,05,06,14.10
2008,08,09,05,07,14.10
2008,08,09,05,08,14.10
2008,08,09,05,09,14.10
2008,08,09,05,10,14.10
2008,08,09,05,11,14.10
2008,08,09,05,12,14.10
2008,08,09,05,13,14.20
2008,08,09,05,14,14.20
2008,08,09,05,15,14.20
2008,08,09,05,16,14.20
2008,08,09,05,17,14.20
2008,08,09,05,18,14.20
2008,08,09,05,19,14.20
2008,08,09,05,20,14.20
2008,08,09,05,21,14.20
2008,08,09,05,22,14.20
2008,08,09,05,23,14.20
2008,08,09,05,24,14.20
2008,08,09,05,25,14.20
2008,08,09,05,26,14.20
2008,08,09,05,27,14.20
2008,08,09,05,28,14.10
2008,08,09,05,29,14.10
2008,08,09,05,30,14.10
2008,08,09,05,31,14.10
2008,08,09,05,32,14.10
2008,08,09,05,33,14.10
2008,08,09,05,34,14.10
2008,08,09,05,35,14.10
2008,08,09,05,36,14.10
2008,08,09,05,37,14.10
2008,08,09,05,38,14.00
2008,08,09,05,39,14.00
2008,08,09,05,40,14.00
2008,08,09,05,41,14.00
2008,08,09,05,42,14.00
2008,08,09,05,43,14.00
2008,08,09,05,44,14.00
2008,08,09,05,45,14.00
2008,08,09,05,46,14.00
2008,08,09,05,47,13.90
2008,08,09,05,48,14.00
2008,08,09,05,49,13.90
2008,08,09,05,50,13.90
2008,08,09,05,51,13.90
2008,08,09,05,52,13.90
2008,08,09,05,53,13.90
2008,08,09,05,54,13.90
2008,08,09,05,55,13.90
2008,08,09,05,56,13.90
2008,08,09,05,57,13.90
2008,08,09,05,58,13.90
2008,08,09,05,59,13.90
2008,08,09,06,00,13.90
2008,08,09,06,01,13.90
2008,08,09,06,02,13.90
2008,08,09,06,03,13.90
2008,08,09,06,04,13.90
2008,08,09,06,05,14.00
2008,08,09,06,06,14.00
2008,08,09,06,07,14.00
2008,08,09,06,08,14.00
2008,08,09,06,09,14.00
2008,08,09,06,10,14.00
2008,08,09,06,11,14.00
2008,08,09,06,12,14.00
2008,08,09,06,13,13.90
2008,08,09,06,14,13.90
2008,08,09,06,15,13.90
2008,08,09,06,16,13.90
2008,08,09,06,17,13.90
2008,08,09,06,18,13.90
2008,08,09,06,19,13.90
2008,08,09,06,20,13.90
2008,08,09,06,21,13.90
2008,08,09,06,22,13.90
2008,08,09,06,23,13.90
2008,08,09,06,24,13.90
2008,08,09,06,25,13.90
2008,08,09,06,26,13.90
2008,08,09,06,27,13.90
2008,08,09,06,28,13.90
2008,08,09,06,29,13.90
2008,08,09,06,30,13.90
2008,08,09,06,31,13.90
2008,08,09,06,32,13.90
2008,08,09,06,33,13.90
2008,08,09,06,34,13.90
2008,08,09,06,35,13.90
2008,08,09,06,36,13.90
2008,08,09,06,37,13.90
2008,08,09,06,38,13.90
2008,08,09,06,39,13.90
2008,08,09,06,40,13.90
2008,08,09,06,41,13.90
2008,08,09,06,42,13.90
2008,08,09,06,43,13.80
2008,08,09,06,44,13.80
2008,08,09,06,45,13.80
2008,08,09,06,46,13.80
2008,08,09,06,47,13.80
2008,08,09,06,48,13.80
2008,08,09,06,49,13.80
2008,08,09,06,50,13.80
2008,08,09,06,51,13.80
2008,08,09,06,52,13.80
2008,08,09,06,53,13.80
2008,08,09,06,54,13.80
2008,08,09,06,55,13.80
2008,08,09,06,56,13.80
2008,08,09,06,57,13.70
2008,08,09,06,58,13.70
2008,08,09,06,59,13.70
2008,08,09,07,00,13.70
2008,08,09,07,01,13.70
2008,08,09,07,02,13.70
2008,08,09,07,03,13.70
2008,08,09,07,04,13.70
2008,08,09,07,05,13.70
2008,08,09,07,06,13.70
2008,08,09,07,07,13.70
2008,08,09,07,08,13.80
2008,08,09,07,09,13.80
2008,08,09,07,10,13.80
2008,08,09,07,11,13.80
2008,08,09,07,12,13.80
2008,08,09,07,13,13.80
2008,08,09,07,14,13.80
2008,08,09,07,15,13.80
2008,08,09,07,16,13.80
2008,08,09,07,17,13.80
2008,08,09,07,18,13.80
2008,08,09,07,19,13.80
2008,08,09,07,20,13.80
2008,08,09,07,21,13.80
2008,08,09,07,22,13.80
2008,08,09,07,23,13.80
2008,08,09,07,24,13.80
2008,08,09,07,25,13.70
2008,08,09,07,26,13.70
2008,08,09,07,27,13.70
2008,08,09,07,28,13.70
2008,08,09,07,29,13.70
2008,08,09,07,30,13.60
2008,08,09,07,31,13.60
2008,08,09,07,32,13.60
2008,08,09,07,33,13.60
2008,08,09,07,34,13.60
2008,08,09,07,35,13.60
2008,08,09,07,36,13.60
2008,08,09,07,37,13.50
2008,08,09,07,38,13.50
2008,08,09,07,39,13.50
2008,08,09,07,40,13.50
2008,08,09,07,41,13.50
2008,08,09,07,42,13.50
2008,08,09,07,43,13.50
2008,08,09,07,44,13.60
2008,08,09,07,45,13.60
2008,08,09,07,46,13.60
2008,08,09,07,47,13.60
2008,08,09,07,48,13.70
2008,08,09,07,49,13.70
2008,08,09,07,50,13.80
2008,08,09,07,51,13.80
2008,08,09,07,52,13.90
2008,08,09,07,53,13.90
2008,08,09,07,54,13.90
2008,08,09,07,55,14.00
2008,08,09,07,56,14.10
2008,08,09,07,57,14.10
2008,08,09,07,58,14.10
2008,08,09,07,59,14.20
2008,08,09,08,00,14.30
2008,08,09,08,01,14.40
2008,08,09,08,02,14.50
2008,08,09,08,03,14.50
2008,08,09,08,04,14.60
2008,08,09,08,05,14.70
2008,08,09,08,06,14.80
2008,08,09,08,07,14.80
2008,08,09,08,08,14.80
2008,08,09,08,09,14.90
2008,08,09,08,10,15.00
2008,08,09,08,11,15.00
2008,08,09,08,12,15.00
2008,08,09,08,13,15.00
2008,08,09,08,14,15.00
2008,08,09,08,15,15.00
2008,08,09,08,16,15.00
2008,08,09,08,17,15.00
2008,08,09,08,18,15.00
2008,08,09,08,19,15.00
2008,08,09,08,20,15.00
2008,08,09,08,21,15.00
2008,08,09,08,22,15.00
2008,08,09,08,23,14.90
2008,08,09,08,24,14.80
2008,08,09,08,25,14.80
2008,08,09,08,26,14.80
2008,08,09,08,27,14.70
2008,08,09,08,28,14.70
2008,08,09,08,29,14.70
2008,08,09,08,30,14.70
2008,08,09,08,31,14.70
2008,08,09,08,32,14.70
2008,08,09,08,33,14.70
2008,08,09,08,34,14.70
2008,08,09,08,35,14.80
2008,08,09,08,36,14.80
2008,08,09,08,37,14.80
2008,08,09,08,38,14.80
2008,08,09,08,39,14.90
2008,08,09,08,40,14.90
2008,08,09,08,41,15.00
2008,08,09,08,42,15.00
2008,08,09,08,43,15.00
2008,08,09,08,44,15.00
2008,08,09,08,45,15.00
2008,08,09,08,46,15.00
2008,08,09,08,47,15.00
2008,08,09,08,48,15.10
2008,08,09,08,49,15.10
2008,08,09,08,50,15.10
2008,08,09,08,51,15.00
2008,08,09,08,52,15.00
2008,08,09,08,53,15.00
2008,08,09,08,54,15.00
2008,08,09,08,55,15.00
2008,08,09,08,56,15.00
2008,08,09,08,57,15.00
2008,08,09,08,58,15.00
2008,08,09,08,59,15.00
2008,08,09,09,00,15.00
2008,08,09,09,01,15.00
2008,08,09,09,02,15.00
2008,08,09,09,03,15.00
2008,08,09,09,04,15.00
2008,08,09,09,05,14.90
2008,08,09,09,06,15.00
2008,08,09,09,07,15.00
2008,08,09,09,08,15.00
2008,08,09,09,09,15.00
2008,08,09,09,10,15.00
2008,08,09,09,11,15.00
2008,08,09,09,12,15.00
2008,08,09,09,13,15.00
2008,08,09,09,14,15.00
2008,08,09,09,15,15.00
2008,08,09,09,16,15.00
2008,08,09,09,17,15.00
2008,08,09,09,18,15.00
2008,08,09,09,19,15.00
2008,08,09,09,20,15.00
2008,08,09,09,21,15.10
2008,08,09,09,22,15.20
2008,08,09,09,23,15.20
2008,08,09,09,24,15.20
2008,08,09,09,25,15.30
2008,08,09,09,26,15.30
2008,08,09,09,27,15.40
2008,08,09,09,28,15.50
2008,08,09,09,29,15.60
2008,08,09,09,30,15.60
2008,08,09,09,31,15.70
2008,08,09,09,32,15.80
2008,08,09,09,33,15.90
2008,08,09,09,34,16.00
2008,08,09,09,35,16.00
2008,08,09,09,36,16.10
2008,08,09,09,37,16.20
2008,08,09,09,38,16.20
2008,08,09,09,39,16.10
2008,08,09,09,40,16.10
2008,08,09,09,41,16.10
2008,08,09,09,42,16.10
2008,08,09,09,43,16.20
2008,08,09,09,44,16.20
2008,08,09,09,45,16.20
2008,08,09,09,46,16.20
2008,08,09,09,47,16.30
2008,08,09,09,48,16.30
2008,08,09,09,49,16.40
2008,08,09,09,50,16.40
2008,08,09,09,51,16.50
2008,08,09,09,52,16.60
2008,08,09,09,53,16.60
2008,08,09,09,54,16.50
2008,08,09,09,55,16.50
2008,08,09,09,56,16.40
2008,08,09,09,57,16.40
2008,08,09,09,58,16.30
2008,08,09,09,59,16.20
2008,08,09,10,00,16.20
2008,08,09,10,01,16.10
2008,08,09,10,02,16.00
2008,08,09,10,03,16.00
2008,08,09,10,04,16.00
2008,08,09,10,05,16.10
2008,08,09,10,06,16.10
2008,08,09,10,07,16.10
2008,08,09,10,08,16.10
2008,08,09,10,09,16.10
2008,08,09,10,10,16.20
2008,08,09,10,11,16.20
2008,08,09,10,12,16.30
2008,08,09,10,13,16.40
2008,08,09,10,14,16.50
2008,08,09,10,15,16.60
2008,08,09,10,16,16.70
2008,08,09,10,17,16.70
2008,08,09,10,18,16.70
2008,08,09,10,19,16.80
2008,08,09,10,20,16.80
2008,08,09,10,21,16.90
2008,08,09,10,22,16.90
2008,08,09,10,23,16.90
2008,08,09,10,24,16.90
2008,08,09,10,25,16.80
2008,08,09,10,26,16.80
2008,08,09,10,27,16.70
2008,08,09,10,28,16.60
2008,08,09,10,29,16.60
2008,08,09,10,30,16.60
2008,08,09,10,31,16.50
2008,08,09,10,32,16.50
2008,08,09,10,33,16.50
2008,08,09,10,34,16.40
2008,08,09,10,35,16.40
2008,08,09,10,36,16.40
2008,08,09,10,37,16.50
2008,08,09,10,38,16.50
2008,08,09,10,39,16.70
2008,08,09,10,40,16.80
2008,08,09,10,41,17.00
2008,08,09,10,42,17.00
2008,08,09,10,43,17.10
2008,08,09,10,44,17.10
2008,08,09,10,45,17.10
2008,08,09,10,46,17.00
2008,08,09,10,47,17.00
2008,08,09,10,48,17.00
2008,08,09,10,49,17.00
2008,08,09,10,50,17.10
2008,08,09,10,51,17.10
2008,08,09,10,52,17.10
2008,08,09,10,53,17.10
2008,08,09,10,54,17.10
2008,08,09,10,55,17.10
2008,08,09,10,56,17.00
2008,08,09,10,57,17.00
2008,08,09,10,58,17.00
2008,08,09,10,59,16.90
2008,08,09,11,00,16.90
2008,08,09,11,01,16.90
2008,08,09,11,02,16.90
2008,08,09,11,03,16.90
2008,08,09,11,04,16.90
2008,08,09,11,05,16.90
2008,08,09,11,06,16.90
2008,08,09,11,07,16.90
2008,08,09,11,08,16.90
2008,08,09,11,09,16.80
2008,08,09,11,10,16.80
2008,08,09,11,11,16.80
2008,08,09,11,12,16.70
2008,08,09,11,13,16.70
2008,08,09,11,14,16.70
2008,08,09,11,15,16.70
2008,08,09,11,16,16.70
2008,08,09,11,17,16.80
2008,08,09,11,18,16.80
2008,08,09,11,19,16.80
2008,08,09,11,20,16.80
2008,08,09,11,21,16.80
2008,08,09,11,22,16.90
2008,08,09,11,23,16.90
2008,08,09,11,24,16.90
2008,08,09,11,25,17.00
2008,08,09,11,26,17.10
2008,08,09,11,27,17.10
2008,08,09,11,28,17.10
2008,08,09,11,29,17.10
2008,08,09,11,30,17.20
2008,08,09,11,31,17.20
2008,08,09,11,32,17.10
2008,08,09,11,33,17.10
2008,08,09,11,34,17.00
2008,08,09,11,35,17.00
2008,08,09,11,36,17.00
2008,08,09,11,37,17.00
2008,08,09,11,38,17.00
2008,08,09,11,39,17.00
2008,08,09,11,40,16.90
2008,08,09,11,41,16.90
2008,08,09,11,42,16.90
2008,08,09,11,43,16.90
2008,08,09,11,44,16.80
2008,08,09,11,45,16.80
2008,08,09,11,46,16.80
2008,08,09,11,47,16.70
2008,08,09,11,48,16.70
2008,08,09,11,49,16.60
2008,08,09,11,50,16.50
2008,08,09,11,51,16.50
2008,08,09,11,52,16.50
2008,08,09,11,53,16.40
2008,08,09,11,54,16.40
2008,08,09,11,55,16.40
2008,08,09,11,56,16.30
2008,08,09,11,57,16.30
2008,08,09,11,58,16.30
2008,08,09,11,59,16.20
2008,08,09,12,00,16.20
2008,08,09,12,01,16.20
2008,08,09,12,02,16.20
2008,08,09,12,03,16.20
2008,08,09,12,04,16.30
2008,08,09,12,05,16.30
2008,08,09,12,06,16.30
2008,08,09,12,07,16.20
2008,08,09,12,08,16.20
2008,08,09,12,09,16.20
2008,08,09,12,10,16.20
2008,08,09,12,11,16.20
2008,08,09,12,12,16.30
2008,08,09,12,13,16.30
2008,08,09,12,14,16.30
2008,08,09,12,15,16.30
2008,08,09,12,16,16.30
2008,08,09,12,17,16.30
2008,08,09,12,18,16.40
2008,08,09,12,19,16.40
2008,08,09,12,20,16.50
2008,08,09,12,21,16.50
2008,08,09,12,22,16.50
2008,08,09,12,23,16.60
2008,08,09,12,24,16.60
2008,08,09,12,25,16.60
2008,08,09,12,26,16.70
2008,08,09,12,27,16.70
2008,08,09,12,28,16.80
2008,08,09,12,29,16.80
2008,08,09,12,30,16.90
2008,08,09,12,31,16.90
2008,08,09,12,32,17.00
2008,08,09,12,33,17.10
2008,08,09,12,34,17.30
2008,08,09,12,35,17.50
2008,08,09,12,36,17.70
2008,08,09,12,37,17.80
2008,08,09,12,38,17.80
2008,08,09,12,39,17.70
2008,08,09,12,40,17.70
2008,08,09,12,41,17.60
2008,08,09,12,42,17.50
2008,08,09,12,43,17.50
2008,08,09,12,44,17.40
2008,08,09,12,45,17.40
2008,08,09,12,46,17.40
2008,08,09,12,47,17.40
2008,08,09,12,48,17.40
2008,08,09,12,49,17.30
2008,08,09,12,50,17.30
2008,08,09,12,51,17.20
2008,08,09,12,52,17.20
2008,08,09,12,53,17.10
2008,08,09,12,54,17.10
2008,08,09,12,55,17.10
2008,08,09,12,56,17.00
2008,08,09,12,57,17.00
2008,08,09,12,58,17.10
2008,08,09,12,59,17.10
2008,08,09,13,00,17.10
2008,08,09,13,01,17.10
2008,08,09,13,02,17.10
2008,08,09,13,03,17.00
2008,08,09,13,04,17.00
2008,08,09,13,05,17.00
2008,08,09,13,06,17.10
2008,08,09,13,07,17.10
2008,08,09,13,08,17.10
2008,08,09,13,09,17.10
2008,08,09,13,10,17.10
2008,08,09,13,11,17.00
2008,08,09,13,12,17.00
2008,08,09,13,13,17.00
2008,08,09,13,14,17.00
2008,08,09,13,15,17.00
2008,08,09,13,16,17.00
2008,08,09,13,17,17.00
2008,08,09,13,18,17.00
2008,08,09,13,19,16.90
2008,08,09,13,20,16.90
2008,08,09,13,21,16.90
2008,08,09,13,22,16.90
2008,08,09,13,23,16.90
2008,08,09,13,24,16.80
2008,08,09,13,25,16.80
2008,08,09,13,26,16.80
2008,08,09,13,27,16.90
2008,08,09,13,28,16.90
2008,08,09,13,29,17.00
2008,08,09,13,30,17.10
2008,08,09,13,31,17.20
2008,08,09,13,32,17.20
2008,08,09,13,33,17.20
2008,08,09,13,34,17.30
2008,08,09,13,35,17.40
2008,08,09,13,36,17.50
2008,08,09,13,37,17.60
2008,08,09,13,38,17.80
2008,08,09,13,39,17.90
2008,08,09,13,40,18.00
2008,08,09,13,41,18.20
2008,08,09,13,42,18.20
2008,08,09,13,43,18.30
2008,08,09,13,44,18.40
2008,08,09,13,45,18.50
2008,08,09,13,46,18.60
2008,08,09,13,47,18.60
2008,08,09,13,48,18.70
2008,08,09,13,49,18.70
2008,08,09,13,50,18.80
2008,08,09,13,51,18.90
2008,08,09,13,52,18.90
2008,08,09,13,53,18.90
2008,08,09,13,54,18.80
2008,08,09,13,55,18.60
2008,08,09,13,56,18.50
2008,08,09,13,57,18.40
2008,08,09,13,58,18.40
2008,08,09,13,59,18.40
2008,08,09,14,00,18.40
2008,08,09,14,01,18.50
2008,08,09,14,02,18.50
2008,08,09,14,03,18.50
2008,08,09,14,04,18.60
2008,08,09,14,05,18.70
2008,08,09,14,06,18.90
2008,08,09,14,07,18.90
2008,08,09,14,08,18.90
2008,08,09,14,09,18.90
2008,08,09,14,10,18.90
2008,08,09,14,11,18.90
2008,08,09,14,12,18.90
2008,08,09,14,13,18.90
2008,08,09,14,14,18.80
2008,08,09,14,15,18.80
2008,08,09,14,16,18.80
2008,08,09,14,17,18.80
2008,08,09,14,18,18.90
2008,08,09,14,19,19.00
2008,08,09,14,20,19.20
2008,08,09,14,21,19.40
2008,08,09,14,22,19.60
2008,08,09,14,23,19.60
2008,08,09,14,24,19.40
2008,08,09,14,25,19.20
2008,08,09,14,26,18.90
2008,08,09,14,27,18.60
2008,08,09,14,28,18.50
2008,08,09,14,29,18.20
2008,08,09,14,30,17.90
2008,08,09,14,31,17.60
2008,08,09,14,32,17.40
2008,08,09,14,33,17.30
2008,08,09,14,34,17.20
2008,08,09,14,35,17.10
2008,08,09,14,36,17.10
2008,08,09,14,37,17.00
2008,08,09,14,38,16.90
2008,08,09,14,39,16.80
2008,08,09,14,40,16.80
2008,08,09,14,41,16.80
2008,08,09,14,42,16.80
2008,08,09,14,43,16.90
2008,08,09,14,44,16.90
2008,08,09,14,45,16.90
2008,08,09,14,46,16.90
2008,08,09,14,47,16.90
2008,08,09,14,48,16.90
2008,08,09,14,49,16.90
2008,08,09,14,50,16.80
2008,08,09,14,51,16.80
2008,08,09,14,52,16.80
2008,08,09,14,53,16.80
2008,08,09,14,54,16.80
2008,08,09,14,55,16.80
2008,08,09,14,56,16.80
2008,08,09,14,57,16.80
2008,08,09,14,58,16.80
2008,08,09,14,59,16.80
2008,08,09,15,00,16.80
2008,08,09,15,01,16.80
2008,08,09,15,02,16.80
2008,08,09,15,03,16.80
2008,08,09,15,04,16.80
2008,08,09,15,05,16.70
2008,08,09,15,06,16.70
2008,08,09,15,07,16.70
2008,08,09,15,08,16.60
2008,08,09,15,09,16.60
2008,08,09,15,10,16.60
2008,08,09,15,11,16.50
2008,08,09,15,12,16.50
2008,08,09,15,13,16.50
2008,08,09,15,14,16.40
2008,08,09,15,15,16.40
2008,08,09,15,16,16.30
2008,08,09,15,17,16.20
2008,08,09,15,18,16.20
2008,08,09,15,19,16.20
2008,08,09,15,20,16.10
2008,08,09,15,21,16.10
2008,08,09,15,22,16.10
2008,08,09,15,23,16.10
2008,08,09,15,24,16.10
2008,08,09,15,25,16.00
2008,08,09,15,26,15.90
2008,08,09,15,27,15.90
2008,08,09,15,28,15.80
2008,08,09,15,29,15.80
2008,08,09,15,30,15.80
2008,08,09,15,31,15.80
2008,08,09,15,32,15.70
2008,08,09,15,33,15.70
2008,08,09,15,34,15.60
2008,08,09,15,35,15.50
2008,08,09,15,36,15.50
2008,08,09,15,37,15.30
2008,08,09,15,38,15.30
2008,08,09,15,39,15.20
2008,08,09,15,40,15.20
2008,08,09,15,41,15.10
2008,08,09,15,42,15.10
2008,08,09,15,43,15.10
2008,08,09,15,44,15.10
2008,08,09,15,45,15.20
2008,08,09,15,46,15.20
2008,08,09,15,47,15.20
2008,08,09,15,48,15.20
2008,08,09,15,49,15.20
2008,08,09,15,50,15.30
2008,08,09,15,51,15.30
2008,08,09,15,52,15.30
2008,08,09,15,53,15.40
2008,08,09,15,54,15.40
2008,08,09,15,55,15.40
2008,08,09,15,56,15.40
2008,08,09,15,57,15.40
2008,08,09,15,58,15.40
2008,08,09,15,59,15.40
2008,08,09,16,00,15.40
2008,08,09,16,01,15.40
2008,08,09,16,02,15.40
2008,08,09,16,03,15.40
2008,08,09,16,04,15.40
2008,08,09,16,05,15.40
2008,08,09,16,06,15.40
2008,08,09,16,07,15.40
2008,08,09,16,08,15.30
2008,08,09,16,09,15.30
2008,08,09,16,10,15.30
2008,08,09,16,11,15.30
2008,08,09,16,12,15.20
2008,08,09,16,13,15.20
2008,08,09,16,14,15.20
2008,08,09,16,15,15.20
2008,08,09,16,16,15.20
2008,08,09,16,17,15.10
2008,08,09,16,18,15.10
2008,08,09,16,19,15.10
2008,08,09,16,20,15.10
2008,08,09,16,21,15.10
2008,08,09,16,22,15.00
2008,08,09,16,23,15.00
2008,08,09,16,24,15.00
2008,08,09,16,25,15.00
2008,08,09,16,26,15.00
2008,08,09,16,27,15.00
2008,08,09,16,28,15.00
2008,08,09,16,29,15.00
2008,08,09,16,30,15.00
2008,08,09,16,31,15.00
2008,08,09,16,32,15.00
2008,08,09,16,33,15.00
2008,08,09,16,34,15.00
2008,08,09,16,35,15.00
2008,08,09,16,36,15.00
2008,08,09,16,37,15.00
2008,08,09,16,38,15.00
2008,08,09,16,39,15.00
2008,08,09,16,40,15.00
2008,08,09,16,41,15.00
2008,08,09,16,42,15.00
2008,08,09,16,43,15.00
2008,08,09,16,44,15.00
2008,08,09,16,45,15.00
2008,08,09,16,46,15.00
2008,08,09,16,47,15.00
2008,08,09,16,48,15.10
2008,08,09,16,49,15.10
2008,08,09,16,50,15.20
2008,08,09,16,51,15.30
2008,08,09,16,52,15.30
2008,08,09,16,53,15.30
2008,08,09,16,54,15.30
2008,08,09,16,55,15.40
2008,08,09,16,56,15.40
2008,08,09,16,57,15.50
2008,08,09,16,58,15.50
2008,08,09,16,59,15.50
2008,08,09,17,00,15.40
2008,08,09,17,01,15.40
2008,08,09,17,02,15.40
2008,08,09,17,03,15.50
2008,08,09,17,04,15.50
2008,08,09,17,05,15.50
2008,08,09,17,06,15.60
2008,08,09,17,07,15.60
2008,08,09,17,08,15.60
2008,08,09,17,09,15.60
2008,08,09,17,10,15.60
2008,08,09,17,11,15.50
2008,08,09,17,12,15.50
2008,08,09,17,13,15.50
2008,08,09,17,14,15.40
2008,08,09,17,15,15.40
2008,08,09,17,16,15.40
2008,08,09,17,17,15.40
2008,08,09,17,18,15.30
2008,08,09,17,19,15.30
2008,08,09,17,20,15.30